DECAYED
Showing default

KEPLER-19, 51051 (Decayed)

Orbit data source: Space-Track

KEPLER-19, 51051 was a payload satellite owned by Kepler Comms (CA) in LEO that was launched on Thu, 13 Jan 2022 UTC via an FALCON 9 launch vehicle from the Air Force Eastern Test Range (AFETR). Payload-class satellites include a variety of spacecraft equipped with specific instruments for various scientific and technological missions. These include communications satellites like Starlink; space stations such as the ISS; scientific satellites like the Hubble; Earth observation satellites from companies like Planet Labs, Umbra, and HawkEye 360; GPS; miniature CubeSats for education and research; and military/defense satellites.

Not visible in the next 10 days
Identifier
51051, 2022-002BV
Orbit
Decayed
Country
Flag of CACA
Related business
Manufacturer
KEPLER/UTIAS
Mission
Decayed Commercial Communications
Bus & Motor
CUBESAT 6U, Unknown motor
Mass
15 kg wet, 15 kg dry
Launch date (UTC)
2022-01-13 (4 years ago)
Launch vehicle
FALCON 9
Launch site
Air Force Eastern Test Range (AFETR)
Object type
Payload
Rocket body
Debris
Shape & HBR
Box + 2 Pan, 0.5 m
Radar Cross Section
0.196 m², Medium (>0.1 m² and < 1m²)

Expand to show TLE details & history
Last TLE update: 1 year ago

TLE from 1 year ago
0 KEPLER-19
1 51051U 22002BV  25089.69813844  .17884277  25226-5  34267-3 0  9996
2 51051  97.3016 165.0953 0015232 274.0257  85.9304 16.46148553178557
Epoch: 2025-03-30T16:45Z
TLE epoch observation values (Epoch: 2025-03-30T16:45:19.161Z)
Latitude
-0.00008°
Longitude
85.44082°
Altitude
152.069 km
Speed
7.815 km/s
True Right ascension
11h 00m 22s
True Declination
0° 00' 00"
Sunlit
Object was in full shadow at epoch
Visualization orbit readout
Latitude
Unknown
Longitude
Unknown
Altitude
Unknown
Speed
Unknown
Apparent Right ascension
Unknown
Apparent Declination
Unknown
Sunlit
N/A
Visualization observer readout
Local Sidereal Time
18:56:13
Azimuth
Unknown
Elevation
Unknown
Doppler factor
Unknown
Orbital elements
Apogee altitude
156.231 km
Perigee altitude
136.355 km
Semi-major axis
6,524.43 km
Eccentricity
0.00152
Inclination
97.3016°
RAAN
165.0953°
Arg. of periapsis
274.0257°
True anomaly
86.10453°
Mean anomaly
85.9304°
Eccentric anomaly
86.01746°
Mean motion
4.11841 °/min
Orbital period
87.41 mins
BSTAR
0.00034267
Loading maneuver chart data...
Computing Atmospheric mass density...

Documentation

Showing up to 5 results
|